Weather in Semenivka

Ukraine / Chernihiv Region     52°10′40″N   32°34′39″E
temp.,
°C
wind,
m/s
gust,
m/s
humid.,
%
clouds,
%
prec.,
mm/h
press.,
hPa
HPBL,
m
15 april, thu
thu1500:00+10e248791 0.1 101594
03:00+9ne2490100 0.1 101397
06:00+9nne359293 0.6 1013150
09:00+11nne2283100 0.6 1012352
12:00+10s2392100 1.3 1012222
15:00+13sse2371100 1.9 1011779
18:00+12s247040 0.4 1011276
21:00+9sse228438 0.5 101114
16 april, fri
fri1600:00+8ene118688 0.0 101112
03:00+8ene228499 0.1 101021
06:00+7e489557 0.6 1011243
09:00+9se71081100 0.8 10121046
12:00+10ese7107580 0.4 10131125
15:00+10ese8107599 1.0 10141188
18:00+8se61289100 0.4 1014754
21:00+7ese349347 0.4 101682
17 april, sat
sat1700:00+6ese239231 0.0 101650
03:00+6ese369540 0.4 1017162
06:00+4se339421 0.0 101848
09:00+8sse1277100 0.0 1019297
12:00+11ne0162100 0.0 10191077
15:00+10ne4472100 0.5 1019728
18:00+8e1286100 0.2 1019165
21:00+8wnw0187100 0.2 101922
18 april, sun
sun1800:00+7w2389100 0.0 102086
03:00+7wnw3690100 0.1 1020225
06:00+7wnw3693100 0.0 1019235
09:00+9nnw3490100 0.0 1019385
12:00+11ne347259 0.0 1019794
15:00+10ene5771100 0.1 1020720
18:00+11ne576885 0.0 1021836
21:00+9ene4108096 0.2 1022451
19 april, mon
mon1900:00+6ene239028 0.1 102273
03:00+5ene35885 0.1 102379
06:00+4ne49955 0.0 1023190
09:00+8ene711752 0.0 1023641
12:00+12e795664 0.0 10231554
15:00+11e796356 0.0 10221263
18:00+10ene61067100 0.0 10221235
21:00+9e61164100 0.0 1022847